Time,TemperatureF,DewpointF,PressureIn,WindDirection,WindDirectionDegrees,WindSpeedMPH,WindSpeedGustMPH,Humidity,HourlyPrecipIn,Conditions,Clouds,dailyrainin,SoftwareType,DateUTC
2013-03-28 00:02:00,58.0,45.0,30.14,SE,144,1.0,2.0,63,0.00,,,0.00,,2013-03-28 05:02:00,
2013-03-28 00:12:00,58.0,45.0,30.14,SE,144,1.0,2.0,63,0.00,,,0.00,,2013-03-28 05:12:00,
2013-03-28 00:22:00,57.0,45.0,30.14,SE,144,1.0,3.0,64,0.00,,,0.00,,2013-03-28 05:22:00,
2013-03-28 00:32:00,56.0,45.0,30.13,SE,144,2.0,5.0,66,0.00,,,0.00,,2013-03-28 05:32:00,
2013-03-28 00:42:00,56.0,45.0,30.13,SE,144,2.0,5.0,66,0.00,,,0.00,,2013-03-28 05:42:00,
2013-03-28 00:52:00,56.0,45.0,30.13,SE,146,3.0,7.0,67,0.00,,,0.00,,2013-03-28 05:52:00,
2013-03-28 01:02:00,56.0,45.0,30.13,SE,145,5.0,9.0,67,0.00,,,0.00,,2013-03-28 06:02:00,
2013-03-28 01:12:00,56.0,45.0,30.13,SE,145,5.0,9.0,67,0.00,,,0.00,,2013-03-28 06:12:00,
2013-03-28 01:22:00,56.0,45.0,30.13,SSE,148,5.0,10.0,66,0.00,,,0.00,,2013-03-28 06:22:00,
2013-03-28 01:32:00,56.0,45.0,30.14,SE,145,7.0,12.0,66,0.00,,,0.00,,2013-03-28 06:32:00,
2013-03-28 01:42:00,56.0,45.0,30.14,SE,145,7.0,12.0,66,0.00,,,0.00,,2013-03-28 06:42:00,
2013-03-28 01:52:00,56.0,45.0,30.14,SE,143,7.0,12.0,67,0.00,,,0.00,,2013-03-28 06:52:00,
2013-03-28 02:02:00,56.0,45.0,30.13,SSE,157,6.0,13.0,67,0.00,,,0.00,,2013-03-28 07:02:00,
2013-03-28 02:12:00,56.0,45.0,30.13,SSE,157,6.0,13.0,67,0.00,,,0.00,,2013-03-28 07:12:00,
2013-03-28 02:22:00,55.0,45.0,30.13,South,180,7.0,12.0,68,0.00,,,0.00,,2013-03-28 07:22:00,
2013-03-28 02:32:00,54.0,44.0,30.13,SSE,154,8.0,14.0,70,0.00,,,0.00,,2013-03-28 07:32:00,
2013-03-28 02:42:00,54.0,44.0,30.13,SSE,154,8.0,14.0,70,0.00,,,0.00,,2013-03-28 07:42:00,
2013-03-28 02:52:00,54.0,45.0,30.14,SSE,157,5.0,12.0,71,0.00,,,0.00,,2013-03-28 07:52:00,
2013-03-28 03:02:00,53.0,45.0,30.13,SE,145,6.0,12.0,73,0.00,,,0.00,,2013-03-28 08:02:00,
2013-03-28 03:12:00,53.0,45.0,30.13,SE,145,6.0,12.0,73,0.00,,,0.00,,2013-03-28 08:12:00,
2013-03-28 03:21:00,53.0,45.0,30.13,SE,138,5.0,12.0,74,0.00,,,0.00,,2013-03-28 08:21:00,
2013-03-28 03:32:00,53.0,45.0,30.13,SSE,150,5.0,9.0,75,0.00,,,0.00,,2013-03-28 08:32:00,
2013-03-28 03:42:00,53.0,45.0,30.13,SSE,150,5.0,9.0,75,0.00,,,0.00,,2013-03-28 08:42:00,
2013-03-28 03:52:00,53.0,46.0,30.12,SSE,157,5.0,14.0,76,0.00,,,0.00,,2013-03-28 08:52:00,
2013-03-28 04:02:00,53.0,46.0,30.12,SSE,154,5.0,12.0,77,0.00,,,0.00,,2013-03-28 09:02:00,
2013-03-28 04:12:00,53.0,46.0,30.12,SSE,154,5.0,12.0,77,0.00,,,0.00,,2013-03-28 09:12:00,
2013-03-28 04:22:00,52.0,45.0,30.12,SE,143,4.0,10.0,78,0.00,,,0.00,,2013-03-28 09:22:00,
2013-03-28 04:32:00,52.0,46.0,30.12,SE,145,5.0,8.0,79,0.00,,,0.00,,2013-03-28 09:32:00,
2013-03-28 04:42:00,52.0,46.0,30.13,SE,141,3.0,7.0,81,0.00,,,0.00,,2013-03-28 09:42:00,
2013-03-28 04:52:00,52.0,46.0,30.13,SE,141,3.0,7.0,81,0.00,,,0.00,,2013-03-28 09:52:00,
2013-03-28 05:02:00,52.0,47.0,30.13,SE,140,2.0,8.0,82,0.00,,,0.00,,2013-03-28 10:02:00,
2013-03-28 05:12:00,52.0,47.0,30.13,SE,140,2.0,8.0,82,0.00,,,0.00,,2013-03-28 10:12:00,
2013-03-28 05:22:00,52.0,47.0,30.13,SE,142,3.0,7.0,82,0.00,,,0.00,,2013-03-28 10:22:00,
2013-03-28 05:32:00,51.0,46.0,30.13,SE,141,5.0,8.0,83,0.00,,,0.00,,2013-03-28 10:32:00,
2013-03-28 05:42:00,51.0,46.0,30.13,SE,141,5.0,8.0,83,0.00,,,0.00,,2013-03-28 10:42:00,
2013-03-28 05:53:00,51.0,47.0,30.13,SE,139,5.0,10.0,85,0.00,,,0.00,,2013-03-28 10:53:00,
2013-03-28 06:02:00,51.0,47.0,30.13,SE,139,6.0,12.0,85,0.00,,,0.00,,2013-03-28 11:02:00,
2013-03-28 06:12:00,51.0,47.0,30.13,SE,139,6.0,12.0,85,0.00,,,0.00,,2013-03-28 11:12:00,
2013-03-28 06:22:00,51.0,47.0,30.13,SE,136,7.0,13.0,85,0.00,,,0.00,,2013-03-28 11:22:00,
2013-03-28 06:32:00,51.0,47.0,30.13,SE,134,5.0,10.0,85,0.00,,,0.00,,2013-03-28 11:32:00,
2013-03-28 06:42:00,51.0,47.0,30.13,SE,134,5.0,10.0,85,0.00,,,0.00,,2013-03-28 11:42:00,
2013-03-28 06:52:00,51.0,47.0,30.14,SE,136,7.0,12.0,85,0.00,,,0.00,,2013-03-28 11:52:00,
2013-03-28 07:02:00,51.0,47.0,30.14,SE,134,7.0,10.0,86,0.00,,,0.00,,2013-03-28 12:02:00,
2013-03-28 07:12:00,51.0,47.0,30.14,SE,134,7.0,10.0,86,0.00,,,0.00,,2013-03-28 12:12:00,
2013-03-28 07:22:00,50.0,46.0,30.14,SE,143,6.0,12.0,86,0.00,,,0.00,,2013-03-28 12:22:00,
2013-03-28 07:32:00,50.0,46.0,30.15,SSE,148,7.0,13.0,87,0.00,,,0.00,,2013-03-28 12:32:00,
2013-03-28 07:42:00,50.0,46.0,30.15,SSE,148,7.0,13.0,87,0.00,,,0.00,,2013-03-28 12:42:00,
2013-03-28 07:52:00,51.0,47.0,30.15,SE,129,10.0,15.0,87,0.00,,,0.00,,2013-03-28 12:52:00,
2013-03-28 08:02:00,51.0,47.0,30.16,SE,135,6.0,12.0,87,0.00,,,0.00,,2013-03-28 13:02:00,
2013-03-28 08:12:00,51.0,47.0,30.16,SE,135,6.0,12.0,87,0.00,,,0.00,,2013-03-28 13:12:00,
2013-03-28 08:22:00,51.0,47.0,30.16,SE,134,7.0,12.0,86,0.00,,,0.00,,2013-03-28 13:22:00,
2013-03-28 08:32:00,51.0,47.0,30.17,SE,135,8.0,12.0,86,0.00,,,0.00,,2013-03-28 13:32:00,
2013-03-28 08:41:00,51.0,47.0,30.17,SE,135,8.0,12.0,86,0.00,,,0.00,,2013-03-28 13:41:00,
2013-03-28 08:52:00,52.0,48.0,30.17,SE,140,8.0,13.0,85,0.00,,,0.00,,2013-03-28 13:52:00,
2013-03-28 09:02:00,53.0,48.0,30.18,SSE,152,7.0,16.0,84,0.00,,,0.00,,2013-03-28 14:02:00,
2013-03-28 09:12:00,53.0,48.0,30.18,SSE,152,7.0,16.0,84,0.00,,,0.00,,2013-03-28 14:12:00,
2013-03-28 09:22:00,54.0,49.0,30.18,SSE,147,8.0,20.0,83,0.00,,,0.00,,2013-03-28 14:22:00,
2013-03-28 09:32:00,55.0,50.0,30.19,SSE,155,9.0,16.0,82,0.00,,,0.00,,2013-03-28 14:32:00,
2013-03-28 09:42:00,55.0,50.0,30.19,SSE,155,9.0,16.0,82,0.00,,,0.00,,2013-03-28 14:42:00,
2013-03-28 09:52:00,56.0,50.0,30.19,SSE,162,10.0,16.0,80,0.00,,,0.00,,2013-03-28 14:52:00,
2013-03-28 10:02:00,57.0,51.0,30.19,SE,138,9.0,16.0,80,0.00,,,0.00,,2013-03-28 15:02:00,
2013-03-28 10:12:00,57.0,51.0,30.19,SE,138,9.0,16.0,80,0.00,,,0.00,,2013-03-28 15:12:00,
2013-03-28 10:21:00,57.0,51.0,30.19,SE,142,12.0,20.0,80,0.00,,,0.00,,2013-03-28 15:21:00,
2013-03-28 10:32:00,58.0,52.0,30.19,SE,145,6.0,16.0,79,0.00,,,0.00,,2013-03-28 15:32:00,
2013-03-28 10:43:00,58.0,52.0,30.19,SE,145,6.0,16.0,79,0.00,,,0.00,,2013-03-28 15:43:00,
2013-03-28 10:53:00,60.0,53.0,30.19,SE,130,6.0,15.0,77,0.00,,,0.00,,2013-03-28 15:53:00,
2013-03-28 11:02:00,61.0,53.0,30.19,SE,142,9.0,15.0,76,0.00,,,0.00,,2013-03-28 16:02:00,
2013-03-28 11:12:00,61.0,53.0,30.19,SE,142,9.0,15.0,76,0.00,,,0.00,,2013-03-28 16:12:00,
2013-03-28 11:23:00,62.0,54.0,30.19,SE,143,8.0,15.0,75,0.00,,,0.00,,2013-03-28 16:23:00,
2013-03-28 11:32:00,62.0,54.0,30.19,SSE,148,8.0,18.0,74,0.00,,,0.00,,2013-03-28 16:32:00,
2013-03-28 11:42:00,62.0,54.0,30.19,SSE,148,8.0,18.0,74,0.00,,,0.00,,2013-03-28 16:42:00,
2013-03-28 11:52:00,64.0,55.0,30.19,SE,142,10.0,18.0,73,0.00,,,0.00,,2013-03-28 16:52:00,
2013-03-28 12:02:00,64.0,55.0,30.18,SE,143,7.0,21.0,73,0.00,,,0.00,,2013-03-28 17:02:00,
2013-03-28 12:12:00,64.0,55.0,30.18,SE,143,7.0,21.0,73,0.00,,,0.00,,2013-03-28 17:12:00,
2013-03-28 12:22:00,64.0,55.0,30.18,SSE,162,13.0,20.0,72,0.00,,,0.00,,2013-03-28 17:22:00,
2013-03-28 12:32:00,65.0,56.0,30.17,SSE,155,9.0,16.0,72,0.00,,,0.00,,2013-03-28 17:32:00,
2013-03-28 12:42:00,65.0,56.0,30.17,SSE,155,9.0,16.0,72,0.00,,,0.00,,2013-03-28 17:42:00,
2013-03-28 12:52:00,65.0,56.0,30.17,SE,134,11.0,20.0,72,0.00,,,0.00,,2013-03-28 17:52:00,
2013-03-28 13:02:00,65.0,55.0,30.16,SSE,154,10.0,18.0,71,0.00,,,0.00,,2013-03-28 18:02:00,
2013-03-28 13:12:00,65.0,55.0,30.16,SSE,154,10.0,18.0,71,0.00,,,0.00,,2013-03-28 18:12:00,
2013-03-28 13:22:00,65.0,55.0,30.16,South,171,13.0,20.0,71,0.00,,,0.00,,2013-03-28 18:22:00,
2013-03-28 13:32:00,65.0,55.0,30.16,SSW,196,10.0,18.0,71,0.00,,,0.00,,2013-03-28 18:32:00,
2013-03-28 13:42:00,65.0,55.0,30.16,SSW,196,10.0,18.0,71,0.00,,,0.00,,2013-03-28 18:42:00,
2013-03-28 13:52:00,66.0,56.0,30.15,SSE,147,12.0,20.0,71,0.00,,,0.00,,2013-03-28 18:52:00,
2013-03-28 14:02:00,65.0,56.0,30.14,SSE,147,7.0,14.0,72,0.00,,,0.00,,2013-03-28 19:02:00,
2013-03-28 14:12:00,65.0,56.0,30.14,SSE,147,7.0,14.0,72,0.00,,,0.00,,2013-03-28 19:12:00,
2013-03-28 14:22:00,65.0,56.0,30.14,SE,130,8.0,13.0,73,0.00,,,0.00,,2013-03-28 19:22:00,
2013-03-28 14:32:00,65.0,56.0,30.14,SSE,151,9.0,14.0,73,0.00,,,0.00,,2013-03-28 19:32:00,
2013-03-28 14:42:00,65.0,56.0,30.14,SSE,151,9.0,14.0,73,0.00,,,0.00,,2013-03-28 19:42:00,
2013-03-28 14:52:00,65.0,56.0,30.13,SE,134,7.0,13.0,73,0.00,,,0.00,,2013-03-28 19:52:00,
2013-03-28 15:03:00,65.0,56.0,30.12,SSE,151,9.0,12.0,73,0.00,,,0.00,,2013-03-28 20:03:00,
2013-03-28 15:12:00,67.0,57.0,30.11,SE,138,9.0,16.0,71,0.00,,,0.00,,2013-03-28 20:12:00,
2013-03-28 15:22:00,67.0,57.0,30.11,SE,138,9.0,16.0,71,0.00,,,0.00,,2013-03-28 20:22:00,
2013-03-28 15:32:00,67.0,57.0,30.10,SSE,158,9.0,21.0,71,0.00,,,0.00,,2013-03-28 20:32:00,
2013-03-28 15:42:00,67.0,57.0,30.10,SSE,158,9.0,21.0,71,0.00,,,0.00,,2013-03-28 20:42:00,
2013-03-28 15:53:00,67.0,57.0,30.09,SE,132,9.0,18.0,70,0.00,,,0.00,,2013-03-28 20:53:00,
2013-03-28 16:02:00,68.0,57.0,30.09,SE,146,6.0,13.0,69,0.00,,,0.00,,2013-03-28 21:02:00,
2013-03-28 16:12:00,68.0,57.0,30.09,SE,146,6.0,13.0,69,0.00,,,0.00,,2013-03-28 21:12:00,
2013-03-28 16:22:00,68.0,57.0,30.08,SSE,168,12.0,23.0,67,0.00,,,0.00,,2013-03-28 21:22:00,
2013-03-28 16:32:00,68.0,57.0,30.08,SE,138,9.0,15.0,69,0.00,,,0.00,,2013-03-28 21:32:00,
2013-03-28 16:43:00,68.0,57.0,30.08,SE,138,9.0,15.0,69,0.00,,,0.00,,2013-03-28 21:43:00,
2013-03-28 16:53:00,68.0,57.0,30.08,SE,142,9.0,14.0,69,0.00,,,0.00,,2013-03-28 21:53:00,
2013-03-28 17:02:00,68.0,57.0,30.07,SE,144,9.0,18.0,69,0.00,,,0.00,,2013-03-28 22:02:00,
2013-03-28 17:12:00,68.0,57.0,30.07,SE,144,9.0,18.0,69,0.00,,,0.00,,2013-03-28 22:12:00,
2013-03-28 17:22:00,70.0,59.0,30.06,SSE,149,14.0,26.0,67,0.00,,,0.00,,2013-03-28 22:22:00,
2013-03-28 17:32:00,70.0,59.0,30.06,SSE,157,9.0,16.0,67,0.00,,,0.00,,2013-03-28 22:32:00,
2013-03-28 17:42:00,70.0,59.0,30.06,SSE,157,9.0,16.0,67,0.00,,,0.00,,2013-03-28 22:42:00,
2013-03-28 17:52:00,70.0,58.0,30.05,SE,134,7.0,20.0,66,0.00,,,0.00,,2013-03-28 22:52:00,
2013-03-28 18:02:00,70.0,58.0,30.06,SE,141,14.0,25.0,66,0.00,,,0.00,,2013-03-28 23:02:00,
2013-03-28 18:12:00,70.0,58.0,30.06,SE,141,14.0,25.0,66,0.00,,,0.00,,2013-03-28 23:12:00,
2013-03-28 18:22:00,71.0,59.0,30.05,SSE,148,14.0,23.0,65,0.00,,,0.00,,2013-03-28 23:22:00,
2013-03-28 18:32:00,71.0,59.0,30.05,SSE,161,9.0,20.0,65,0.00,,,0.00,,2013-03-28 23:32:00,
2013-03-28 18:42:00,71.0,59.0,30.05,SSE,161,9.0,20.0,65,0.00,,,0.00,,2013-03-28 23:42:00,
2013-03-28 18:52:00,71.0,59.0,30.05,SE,138,14.0,24.0,65,0.00,,,0.00,,2013-03-28 23:52:00,
2013-03-28 19:02:00,70.0,58.0,30.05,SSE,147,10.0,20.0,65,0.00,,,0.00,,2013-03-29 00:02:00,
2013-03-28 19:12:00,70.0,58.0,30.05,SSE,147,10.0,20.0,65,0.00,,,0.00,,2013-03-29 00:12:00,
2013-03-28 19:22:00,70.0,58.0,30.05,SSE,153,7.0,14.0,65,0.00,,,0.00,,2013-03-29 00:22:00,
2013-03-28 19:32:00,70.0,58.0,30.05,SE,146,7.0,12.0,66,0.00,,,0.00,,2013-03-29 00:32:00,
2013-03-28 19:42:00,70.0,58.0,30.05,SE,146,7.0,12.0,66,0.00,,,0.00,,2013-03-29 00:42:00,
2013-03-28 19:52:00,70.0,59.0,30.05,SSE,152,9.0,13.0,67,0.00,,,0.00,,2013-03-29 00:52:00,
2013-03-28 20:02:00,69.0,58.0,30.05,SE,145,7.0,16.0,68,0.00,,,0.00,,2013-03-29 01:02:00,
2013-03-28 20:12:00,69.0,58.0,30.05,SE,145,7.0,16.0,68,0.00,,,0.00,,2013-03-29 01:12:00,
2013-03-28 20:22:00,69.0,58.0,30.05,SE,140,5.0,12.0,69,0.00,,,0.00,,2013-03-29 01:22:00,
2013-03-28 20:32:00,68.0,57.0,30.06,SE,128,6.0,13.0,69,0.00,,,0.00,,2013-03-29 01:32:00,
2013-03-28 20:42:00,68.0,57.0,30.06,SE,128,6.0,13.0,69,0.00,,,0.00,,2013-03-29 01:42:00,
2013-03-28 20:52:00,68.0,58.0,30.06,SE,143,6.0,12.0,70,0.00,,,0.00,,2013-03-29 01:52:00,
2013-03-28 21:02:00,67.0,57.0,30.06,SE,135,7.0,13.0,71,0.00,,,0.00,,2013-03-29 02:02:00,
2013-03-28 21:12:00,67.0,57.0,30.06,SE,135,7.0,13.0,71,0.00,,,0.00,,2013-03-29 02:12:00,
2013-03-28 21:22:00,67.0,57.0,30.06,SE,138,7.0,15.0,71,0.00,,,0.00,,2013-03-29 02:22:00,
2013-03-28 21:32:00,67.0,58.0,30.07,SE,134,7.0,10.0,72,0.00,,,0.00,,2013-03-29 02:32:00,
2013-03-28 21:42:00,67.0,58.0,30.07,SE,134,7.0,10.0,72,0.00,,,0.00,,2013-03-29 02:42:00,
2013-03-28 21:52:00,67.0,58.0,30.08,SE,134,7.0,13.0,73,0.00,,,0.00,,2013-03-29 02:52:00,
2013-03-28 22:02:00,67.0,58.0,30.08,SE,138,7.0,12.0,73,0.00,,,0.00,,2013-03-29 03:02:00,
2013-03-28 22:12:00,67.0,58.0,30.08,SE,138,7.0,12.0,73,0.00,,,0.00,,2013-03-29 03:12:00,
2013-03-28 22:22:00,67.0,58.0,30.08,SE,142,8.0,14.0,73,0.00,,,0.00,,2013-03-29 03:22:00,
2013-03-28 22:32:00,67.0,58.0,30.08,SE,134,10.0,16.0,73,0.00,,,0.00,,2013-03-29 03:32:00,
2013-03-28 22:42:00,67.0,58.0,30.08,SE,134,10.0,16.0,73,0.00,,,0.00,,2013-03-29 03:42:00,
2013-03-28 22:53:00,66.0,57.0,30.09,SE,145,7.0,14.0,74,0.00,,,0.00,,2013-03-29 03:53:00,
2013-03-28 23:03:00,66.0,57.0,30.09,SSE,153,8.0,14.0,74,0.00,,,0.00,,2013-03-29 04:03:00,
2013-03-28 23:12:00,66.0,57.0,30.09,SSE,153,8.0,14.0,74,0.00,,,0.00,,2013-03-29 04:12:00,
2013-03-28 23:22:00,66.0,57.0,30.09,SE,145,7.0,15.0,74,0.00,,,0.00,,2013-03-29 04:22:00,
2013-03-28 23:33:00,66.0,58.0,30.10,SSE,148,4.0,12.0,76,0.00,,,0.00,,2013-03-29 04:33:00,
2013-03-28 23:43:00,66.0,58.0,30.10,SSE,148,4.0,12.0,76,0.00,,,0.00,,2013-03-29 04:43:00,
2013-03-28 23:52:00,65.0,57.0,30.10,SE,134,6.0,12.0,76,0.00,,,0.00,,2013-03-29 04:52:00,